Finales Départementales des Jeunes - J1 - PAS-DE-CALAIS

Compétition Départementale

LENS

Le Dimanche 20 Mai 2012

Bassin de 50m

100 Dos Messieurs

Séries

Nom Année Temps Pts Club Pays
1 GOSSELIN Antony 1999 1:13:54 816 US MONTREUIL-SUR-MER FRA
2 GAILLARD Theo 1999 1:15:31 773 AUCHEL NATATION FRA
3 LECLERCQ Thomas 1999 1:18:37 700 SN LENS FRA
4 DELMOTTE Loic 1999 1:19:89 666 SC BOULOGNE-SUR-MER FRA
5 JAYET Zakari 2000 1:20:16 660 STADE BÉTHUNE PÉLICAN CLUB FRA
6 BOCAERT Clément 1999 1:20:50 652 US MONTREUIL-SUR-MER FRA
7 BARANZELLI Thomas 1999 1:21:10 639 SN LENS FRA
8 PANEL Lucas 1999 1:21:99 619 USO BRUAY-LA-BUISSIERE FRA
9 DELPLANQUE David 2000 1:22:37 611 RACING CLUB ARRAS FRA
10 CLAUDEL Valentin 1999 1:22:65 605 CALAIS NATATION FRA
11 FONTAINE Rodrigue 1999 1:23:15 594 USO BRUAY-LA-BUISSIERE FRA
12 LENOIR Antoine 2000 1:23:51 587 USO BRUAY-LA-BUISSIERE FRA
13 PARENT Marcus 1999 1:23:74 582 BERCK NATATION FRA
14 BUQUET Mathis 2000 1:24:06 575 SN HARNES FRA
15 MAGNIER Fabien 1999 1:24:71 562 CALAIS NATATION FRA
16 DUFOUR Victor 1999 1:24:76 561 AUCHEL NATATION FRA
17 CORNU Louis 2000 1:25:57 544 BERCK NATATION FRA
18 LAMON Maty 1999 1:25:71 541 CN COURRIÈRES FRA
19 MATUSZAK Leo 2001 1:25:73 541 STADE BÉTHUNE PÉLICAN CLUB FRA
20 MILLE Thomas 2001 1:26:32 529 CALAIS NATATION FRA
21 WINOCK Hugo 2000 1:26:46 526 DAUPHINS ST-OMER FRA
22 LAZZARI Nicolas 1999 1:26:77 520 SN LENS FRA
23 HURTEVENT Tom 1999 1:28:53 485 CALAIS NATATION FRA
24 DEWILDE Colin 2000 1:29:51 467 CN COURRIÈRES FRA
25 DUFOSSÉ Jérémy 1999 1:29:59 465 ASL CANETONS LILLERS FRA
26 BERNARD Erwin 2000 1:29:61 465 SN HARNES FRA
27 BECQUET Vianney 1999 1:29:63 464 US MONTREUIL-SUR-MER FRA
28 VILLAYES Julien 2000 1:30:24 453 SN LENS FRA
29 DRUELLE Adrien 1999 1:30:27 453 SN HARNES FRA
30 DOMINIK Amaury 2002 1:30:41 450 USO BRUAY-LA-BUISSIERE FRA
31 FIEF Tristan 2001 1:31:38 432 RACING CLUB ARRAS FRA
32 HUNET Marvin 2001 1:31:60 428 SN LENS FRA
33 RODRIGUEZ Stéphane 2001 1:31:74 426 US MONTREUIL-SUR-MER FRA
34 SIMON Balthazar 2001 1:31:75 425 SC BOULOGNE-SUR-MER FRA
35 MAGNIER Arthur 2001 1:32:02 421 DAUPHINS ST-OMER FRA
36 LOOTEN Cyprien 2001 1:32:26 416 DAUPHINS ST-OMER FRA
37 FLEJSZAR Clement 2001 1:33:20 400 SN LENS FRA
38 PLANCHEZ Arthur 1999 1:33:20 400 TRITONS LUMBRES FRA
39 LEROUX Esteban 2000 1:34:07 385 SC BOULOGNE-SUR-MER FRA
40 DRUELLE Gaël 1999 1:34:12 384 SN HARNES FRA
41 BOCQUET Julien 1999 1:34:29 381 HIPPO. MONTIGNY-EN-GOHELLE FRA
42 LEGROS Vincent 1999 1:34:52 377 HIPPO. MONTIGNY-EN-GOHELLE FRA
43 LEFEBVRE Tristan 2002 1:34:63 375 STADE BÉTHUNE PÉLICAN CLUB FRA
44 DESFONTAINES Bastien 2001 1:35:65 358 STADE BÉTHUNE PÉLICAN CLUB FRA
45 POURCHEZ Aurelien 2001 1:35:86 355 ASL CANETONS LILLERS FRA
46 LEQUEUX Antonin 2001 1:36:09 351 US MONTREUIL-SUR-MER FRA
47 DELIE Martin 2001 1:36:17 350 SC BOULOGNE-SUR-MER FRA
48 DEGRAEVE Nicolas 2002 1:36:27 348 RACING CLUB ARRAS FRA
49 SEGRET Marceau 2002 1:37:16 334 BERCK NATATION FRA
50 GONTIER Thomas 2002 1:37:30 331 CALAIS NATATION FRA
51 VASSEUR Anthony 2001 1:37:31 331 DAUPHINS ST-OMER FRA
52 MAY Thibault 2001 1:37:41 330 DAUPHINS ST-OMER FRA
53 PEYTAVI Clement 2002 1:37:67 326 SN LENS FRA
54 WALLART Jules 2002 1:38:35 315 SN HARNES FRA
55 LELEU Baptiste 2001 1:39:79 293 CALAIS NATATION FRA
56 CONSTANT Jules 2001 1:40:49 283 DAUPHINS ST-OMER FRA
57 DEY Grégoire 2002 1:40:91 277 CN COURRIÈRES FRA
58 TILLIER Théo 2002 1:42:31 257 CN HÉNIN-BEAUMONT FRA
59 BRAURE Pierre 2001 1:43:36 242 SC BOULOGNE-SUR-MER FRA
60 BUTEAUX Elie 2002 1:43:55 240 STADE BÉTHUNE PÉLICAN CLUB FRA
61 SAUDEMONT Felix 2001 1:44:11 232 ENC ACHICOURT FRA
62 LOUVET Loïc 2001 1:44:29 230 CALAIS NATATION FRA
63 CADET Thomas 2002 1:44:41 228 TRITONS LUMBRES FRA
64 DEVOS Nils 2002 1:44:67 225 CALAIS NATATION FRA
65 LEMAS Baptiste 2002 1:46:58 200 TRITONS LUMBRES FRA
66 GRANADO Hugo 2002 1:47:23 192 CN COURRIÈRES FRA
67 BONHOMME Célien 2002 1:47:88 185 ENC ACHICOURT FRA
68 DUBART Anthony 2002 1:50:93 150 SN HARNES FRA
69 DUBRULLE Benoit 2002 1:53:02 129 ASL CANETONS LILLERS FRA
70 VAQUETTE Nicolas 2002 1:59:00 76 ENC ACHICOURT FRA
71 CALAIS Marius 2002 2:00:83 63 RACING CLUB ARRAS FRA
72 RINGOT Jean 2002 2:10:86 13 TRITONS LUMBRES FRA
RACING CLUB ARRAS